DLH476 EDDM-CYVR

Flight info

Callsign DLH476
Flight time N/A
Altitude 36000
Route INPUD2N INPUD Y102 UPALA Z109 BIRKA/N0472F300 M852 LARET/N0480F360 M852 SOKWO DCT ATTUS P992 LINVI/N0361F120 P992 ZOL/N0491F360 DCT BARUD/M085F380 DCT 6710N DCT 7020N DCT GISGA DCT 7350N DCT 7360N/M084F400 DCT N7270/N0491F400 DCT 7180N DCT 7087N DCT N6990 DCT 67N00 DCT 65N04 DCT YSM J528 YQU DCT YWL Q800 ELIDI WHSLR8
Aircraft A359/H-SDE2E3GHIJ3J4J5LM1ORWXY/LB1D1

Departure

Time 2026-05-04 05:56
Airport Munich Airport (EDDM)

Arrival

Time N/A
Airport Vancouver International Airport (CYVR)
Time Latitude Longitude Altitude Speed Heading
2026-05-04 05:31 48.35527 11.79711 1473 ft 0 kts 84°
2026-05-04 05:35 48.35528 11.79712 1473 ft 1 kts 84°
2026-05-04 05:35 48.35528 11.79723 1473 ft 1 kts 84°
2026-05-04 05:35 48.35528 11.79725 1473 ft 0 kts 84°
2026-05-04 05:45 48.35523 11.79662 1466 ft 4 kts 81°
2026-05-04 05:45 48.35519 11.79623 1461 ft 2 kts 82°
2026-05-04 05:47 48.35479 11.79586 1461 ft 0 kts 355°
2026-05-04 05:48 48.35517 11.79580 1461 ft 11 kts 354°
2026-05-04 05:49 48.35620 11.79563 1468 ft 19 kts 353°
2026-05-04 05:49 48.35757 11.79540 1464 ft 20 kts 353°
2026-05-04 05:49 48.35894 11.79517 1468 ft 20 kts 353°
2026-05-04 05:49 48.36028 11.79494 1464 ft 19 kts 353°
2026-05-04 05:51 48.36286 11.80419 1471 ft 17 kts 83°
2026-05-04 05:51 48.36300 11.80597 1474 ft 18 kts 83°
2026-05-04 05:52 48.36314 11.80787 1464 ft 18 kts 83°
2026-05-04 05:52 48.36329 11.80980 1473 ft 19 kts 83°
2026-05-04 05:52 48.36344 11.81175 1467 ft 19 kts 83°
2026-05-04 05:52 48.36359 11.81372 1464 ft 19 kts 84°
2026-05-04 05:53 48.36373 11.81572 1466 ft 19 kts 84°
2026-05-04 05:54 48.36673 11.81952 1467 ft 13 kts 278°
2026-05-04 05:55 48.36667 11.81800 1462 ft 20 kts 264°
2026-05-04 05:55 48.36636 11.81389 1461 ft 65 kts 263°
2026-05-04 05:55 48.36562 11.80463 1466 ft 114 kts 263°
2026-05-04 05:55 48.36455 11.79046 1467 ft 157 kts 264°
2026-05-04 05:56 48.36320 11.77349 1871 ft 161 kts 262°
2026-05-04 05:56 48.36160 11.75668 2352 ft 168 kts 262°
2026-05-04 05:56 48.35953 11.73837 2585 ft 189 kts 261°
2026-05-04 05:56 48.35697 11.71784 2781 ft 209 kts 266°
2026-05-04 05:57 48.35653 11.69513 3073 ft 225 kts 274°
2026-05-04 05:57 48.36020 11.67230 3569 ft 227 kts 300°
2026-05-04 05:57 48.36350 11.66515 3749 ft 228 kts 314°
2026-05-04 05:57 48.37756 11.65267 4044 ft 241 kts 346°
2026-05-04 05:58 48.39453 11.64769 4384 ft 255 kts 351°
2026-05-04 05:58 48.41227 11.64325 4938 ft 261 kts 350°
2026-05-04 05:58 48.43031 11.63830 5534 ft 266 kts 349°
2026-05-04 05:58 48.44863 11.63306 6135 ft 270 kts 348°
2026-05-04 05:59 48.46724 11.62765 6753 ft 274 kts 347°
2026-05-04 05:59 48.48616 11.62210 7371 ft 279 kts 347°
2026-05-04 05:59 48.50537 11.61648 8003 ft 284 kts 346°
2026-05-04 05:59 48.52498 11.61073 8649 ft 289 kts 346°
2026-05-04 06:00 48.54478 11.60487 9310 ft 293 kts 346°
2026-05-04 06:00 48.56494 11.59869 9961 ft 297 kts 344°
2026-05-04 06:00 48.58487 11.58929 10438 ft 306 kts 336°
2026-05-04 06:00 48.60528 11.57752 10758 ft 322 kts 335°
2026-05-04 06:01 48.62668 11.56494 11086 ft 338 kts 336°
2026-05-04 06:01 48.64909 11.55183 11394 ft 353 kts 336°
2026-05-04 06:03 48.81840 11.45353 15351 ft 384 kts 336°
2026-05-04 06:03 48.84345 11.43894 15879 ft 388 kts 336°
2026-05-04 06:05 49.02524 11.33270 19559 ft 409 kts 337°
2026-05-04 06:05 49.07832 11.30150 20607 ft 414 kts 336°
2026-05-04 06:05 49.10526 11.28564 21122 ft 417 kts 336°
2026-05-04 06:06 49.13242 11.26962 21651 ft 419 kts 336°
2026-05-04 06:06 49.15971 11.25352 22138 ft 422 kts 336°
2026-05-04 06:06 49.18713 11.23732 22642 ft 425 kts 336°
2026-05-04 06:06 49.21537 11.22323 23121 ft 430 kts 345°
2026-05-04 06:07 49.24473 11.21339 23600 ft 433 kts 346°
2026-05-04 06:07 49.27444 11.20479 24015 ft 436 kts 347°
2026-05-04 06:07 49.30446 11.19683 24428 ft 439 kts 348°
2026-05-04 06:07 49.33466 11.18913 24863 ft 441 kts 348°
2026-05-04 06:08 49.36507 11.18146 25250 ft 445 kts 348°
2026-05-04 06:08 49.39569 11.17367 25645 ft 447 kts 347°
2026-05-04 06:08 49.42627 11.16577 26046 ft 449 kts 347°
2026-05-04 06:08 49.45740 11.15764 26426 ft 453 kts 347°
2026-05-04 06:09 49.48850 11.14946 26795 ft 456 kts 347°
2026-05-04 06:09 49.51991 11.14118 27187 ft 458 kts 347°
2026-05-04 06:11 49.74416 11.08179 29704 ft 477 kts 347°
2026-05-04 06:11 49.77694 11.07306 30049 ft 479 kts 347°
2026-05-04 06:13 50.01330 11.04106 31872 ft 497 kts 356°
2026-05-04 06:14 50.22207 11.03514 33288 ft 504 kts 355°
2026-05-04 06:14 50.25702 11.03408 33633 ft 503 kts 355°
2026-05-04 06:15 50.29202 11.03300 33919 ft 502 kts 355°
2026-05-04 06:15 50.32689 11.03193 34188 ft 501 kts 355°
2026-05-04 06:15 50.36174 11.03085 34446 ft 500 kts 355°
2026-05-04 06:15 50.39643 11.02980 34803 ft 497 kts 355°
2026-05-04 06:16 50.43093 11.02876 35070 ft 495 kts 355°
2026-05-04 06:16 50.46542 11.02770 35238 ft 496 kts 355°
2026-05-04 06:16 50.49991 11.02662 35424 ft 496 kts 355°
2026-05-04 06:16 50.53440 11.02556 35614 ft 495 kts 355°
2026-05-04 06:17 50.56887 11.02450 35807 ft 495 kts 355°
2026-05-04 06:17 50.60329 11.02345 35957 ft 495 kts 355°
2026-05-04 06:17 50.67257 11.02130 36005 ft 502 kts 355°
2026-05-04 06:18 50.74245 11.01885 36008 ft 501 kts 353°
2026-05-04 06:20 51.01864 10.97989 36009 ft 498 kts 351°
2026-05-04 06:21 51.19151 10.95683 36007 ft 500 kts 351°
2026-05-04 06:22 51.26095 10.94746 35996 ft 501 kts 351°
2026-05-04 06:25 51.74845 10.88525 35977 ft 502 kts 349°
2026-05-04 06:26 51.81780 10.87258 35974 ft 502 kts 349°
2026-05-04 06:26 51.88694 10.86093 35969 ft 503 kts 350°
2026-05-04 06:27 52.06149 10.83699 35980 ft 504 kts 351°
2026-05-04 06:28 52.13151 10.82709 35966 ft 506 kts 351°
2026-05-04 06:28 52.20158 10.81735 35964 ft 506 kts 351°
2026-05-04 06:29 52.27177 10.80766 35982 ft 506 kts 351°
2026-05-04 06:29 52.34188 10.79776 35960 ft 506 kts 349°
2026-05-04 06:30 52.41021 10.77448 35967 ft 500 kts 341°
2026-05-04 06:30 52.47757 10.74555 35962 ft 500 kts 340°
2026-05-04 06:31 52.54468 10.71572 35963 ft 500 kts 340°
2026-05-04 06:31 52.61192 10.68581 35951 ft 501 kts 340°
2026-05-04 06:33 52.88094 10.56622 35950 ft 500 kts 340°
2026-05-04 06:34 52.93674 10.54167 35954 ft 500 kts 340°
2026-05-04 06:34 53.00397 10.51206 35953 ft 500 kts 340°
2026-05-04 06:36 53.27261 10.39260 35954 ft 499 kts 340°
2026-05-04 06:37 53.33966 10.36251 35959 ft 499 kts 340°
2026-05-04 06:37 53.40666 10.33237 35962 ft 498 kts 340°
2026-05-04 06:38 53.47310 10.30239 35962 ft 498 kts 340°
2026-05-04 06:40 53.74024 10.18100 35971 ft 498 kts 341°
2026-05-04 06:40 53.80766 10.15401 35959 ft 498 kts 342°
2026-05-04 06:41 53.87510 10.12695 35959 ft 498 kts 341°
2026-05-04 06:41 53.94244 10.09938 35956 ft 498 kts 341°
2026-05-04 06:42 54.00980 10.07150 35955 ft 498 kts 341°
2026-05-04 06:44 54.23619 9.83889 35943 ft 476 kts 312°
2026-05-04 06:44 54.28495 9.76218 35938 ft 476 kts 312°
2026-05-04 06:45 54.33384 9.68551 35938 ft 476 kts 312°
2026-05-04 06:45 54.38275 9.60883 35951 ft 477 kts 312°
2026-05-04 06:46 54.43175 9.53182 35938 ft 478 kts 312°